www.pogodaiklimat.ru

Погода и климат >> Архив погоды >> Германия >> Штёттен-ам-Ауэрберг


ПОГОДА в Штёттен-ам-Ауэрберг

  • Прогноз погоды в Штёттен-ам-Ауэрберг
  • Монитор погоды в Штёттен-ам-Ауэрберг

АРХИВ ПОГОДЫ в Штёттен-ам-Ауэрберг

Время (UTC), дата Ветер
(напр.,м/с)
 
Видим.   Явления Облачность Т
(С)
Тd
(С)
f
(%)
Тe
(С)
Тes
(С)
Комфортность P
(гПа)
Po
(гПа)
Тmin
(С)
Tmax
(С)
R
(мм)
R24
(мм)
S
(см)
22 15.07 С 3-5
{5}
30 км ясно +12.8 +9.8 82 +11 +11 1017.7 932.9
23 15.07 СЗ 3-4
{5}
25 км ясно +11.9 +9.7 86 +10 +10 1018.1 933.0
00 16.07 СЗ 2 23 км ясно +11.3 +9.1 86 +10 +10 1018.4 933.1
01 16.07 СЗ 3-4
{4}
9000 м ясно +10.5 +9.9 96 +8 +8 1018.4 932.9
02 16.07 СЗ 3-4
{5}
1400 м в посл. час туман {дымка} 5/5 <50 м
[]
+9.6 +9.5 99 +7 +7 1018.7 932.9
03 16.07 СЗ 3 3100 м в посл. час туман {дымка} 5/5 <50 м
[]
+9.1 +9.1 100 +6 +6 1018.8 932.8
04 16.07 СЗ 2-4
{4}
2700 м в посл. час туман {дымка} 5/5 <50 м
[]
+8.7 +8.7 100 +7 +7 1018.8 932.7
05 16.07 З 2-3
{3}
200 м туман {дымка} 10/10 <50 м
[]
+9.6 +9.6 100 +8 +8 1018.7 932.9
06 16.07 З 2 100 м туман {дымка} 10/10 <50 м
[]
+10.0 +9.9 99 +8 +8 1018.7 933.0 +8.7 +17.9
07 16.07 З 2-3
{3}
5000 м в посл. час туман {дымка} 9/9 30 м
[]
+10.5 +9.9 96 +9 +10 1018.7 933.1
08 16.07 З 3-4
{4}
11 км 6/6 150 м
[]
+12.7 +10.4 86 +11 +15 1018.0 933.1
09 16.07 З 3 13 км {туман, дымка} 1/1 270 м
[]
+14.1 +10.5 79 +13 +23 1017.5 933.1
10 16.07 З 3-5
{7}
17 км ясно +15.6 +10.5 72 +15 +28 опасность
простуды
1017.3 933.3
11 16.07 З 4-6
{6}
19 км ясно +17.0 +10.5 66 +17 +28 1016.8 933.2
12 16.07 З 5 23 км {туман, дымка} 3/3 800 м
[]
+18.3 +10.9 62 +18 +25 1016.2 933.0
13 16.07 З 4-7
{8}
26 км ясно +19.3 +10.8 58 +20 +31 1015.5 932.7
14 16.07 СЗ 4-7
{8}
40 км ясно +20.3 +10.4 53 +22 +30 комфорт 1015.2 932.6
15 16.07 З 4-6
{8}
35 км ясно +20.5 +10.2 52 +22 +28 комфорт 1015.0 932.5
17 16.07 СЗ 4-5
{6}
60 км ясно +20.3 +9.0 48 +22 +23 комфорт 1014.7 932.1
18 16.07 СЗ 4 40 км ясно +19.2 +9.3 53 +20 +20 1014.9 932.0 +9.6 +21.2
19 16.07 С 3-3
{5}
35 км ясно +16.6 +9.6 63 +16 +16 1015.6 932.0
20 16.07 С 3-4
{5}
40 км ясно +15.4 +8.8 65 +15 +15 1016.2 932.2
21 16.07 С 2-3
{5}
45 км ясно +15.8 +7.8 59 +16 +16 1016.0 932.1
22 16.07 СВ 1-1
{2}
40 км 5/0
[]
+15.2 +7.7 61 +16 +16 1016.2 932.1
23 16.07 З 1-1
{1}
40 км ясно +14.8 +7.8 63 +15 +15 1016.3 932.1
00 17.07 штиль 0 40 км ясно +14.7 +7.3 61 +15 +15 1016.2 932.0
01 17.07 З 1-1
{2}
45 км ясно +15.4 +7.4 59 +16 +16 1015.7 931.7
02 17.07 З 1 40 км 4/4 1500 м
[]
+15.0 +7.2 60 +16 +16 1015.4 931.3
03 17.07 З 1-1
{2}
35 км ясно +14.4 +7.7 64 +15 +15 1015.2 931.0
04 17.07 З 2-2
{2}
30 км ясно +13.8 +7.5 66 +13 +13 1015.2 930.8
05 17.07 З 1-2
{3}
27 км ясно +15.1 +8.3 64 +16 +17 1014.5 930.5
06 17.07 З 2 29 км ясно +16.1 +9.2 64 +16 +19 1014.3 930.6 +13.7 +19.2
07 17.07 З 2-2
{2}
55 км ясно +17.0 +9.3 60 +17 +24 1013.8 930.4
08 17.07 З 2-3
{3}
30 км ясно +18.3 +10.0 58 +19 +29 1013.5 930.5
09 17.07 З 3 45 км ясно +19.4 +9.7 53 +21 +32 комфорт 1013.3 930.6
10 17.07 СЗ 4-6
{6}
26 км ясно +20.0 +10.0 53 +21 +32 комфорт 1013.0 930.5
11 17.07 З 4-7
{7}
25 км ясно +21.2 +9.3 47 +23 +34 комфорт 1012.5 930.4
12 17.07 З 5 35 км 1/1 1500 м
[]
+21.9 +9.0 44 +23 +31 комфорт 1012.1 930.2
13 17.07 З 4-8
{9}
30 км 4/0
[]
+22.4 +10.5 47 +24 +33 комфорт 1011.7 930.0
14 17.07 СЗ 4-6
{7}
30 км ясно +22.0 +9.1 44 +23 +32 комфорт 1011.7 929.8
15 17.07 З 4 30 км 5/5 1500 м
[]
+22.3 +10.3 47 +24 +27 комфорт 1011.1 929.4
16 17.07 СЗ 4-5
{7}
30 км ясно +22.5 +10.7 47 +24 +28 комфорт 1010.8 929.2
17 17.07 СЗ 4 30 км 4/4 1500 м
[]
+21.8 +10.9 50 +24 +25 комфорт 1010.7 928.9
18 17.07 СЗ 5 35 км ясно +20.5 +9.2 48 +22 +22 комфорт 1011.2 929.0 +15.9 +23.4
19 17.07 СЗ 3-5
{6}
40 км ясно +18.1 +7.8 51 +18 +18 1011.8 928.9
21 17.07 СЗ 4-4
{6}
35 км ясно +16.1 +7.2 56 +15 +15 1013.0 929.4
22 17.07 С 1-3
{4}
40 км ясно +15.6 +6.8 56 +16 +16 1013.3 929.5
23 17.07 В 2-3
{4}
35 км ясно +15.7 +7.7 59 +16 +16 1013.2 929.5
00 18.07 В 3 30 км ясно +15.3 +8.7 65 +15 +15 1013.1 929.3
01 18.07 В 3-3
{4}
30 км ясно +16.0 +8.6 61 +16 +16 1012.7 929.1
02 18.07 В 3-4
{4}
30 км ясно +16.1 +9.1 63 +16 +16 1012.3 928.8
03 18.07 ЮВ 2-3
{4}
30 км ясно +16.0 +9.1 64 +16 +16 1012.2 928.7
04 18.07 ЮВ 2-3
{4}
35 км ясно +15.6 +9.3 66 +16 +16 1012.3 928.7
05 18.07 Ю 2 35 км 9/0
[]
+16.7 +9.6 63 +17 +17 1011.9 928.6
06 18.07 Ю 2 35 км 9/0
[]
+18.4 +10.1 58 +19 +21 1011.7 928.9 +14.9 +20.5
07 18.07 Ю 3-5
{5}
30 км 10/0
[]
+18.0 +10.2 60 +18 +21 1012.1 929.2
08 18.07 ЮЗ 3-4
{4}
30 км 1/0
[]
+19.0 +10.8 59 +20 +28 1012.0 929.4
09 18.07 З 3 40 км 1/0
[]
+20.5 +9.5 49 +22 +33 комфорт 1011.6 929.4
10 18.07 СЗ 5-7
{7}
40 км ясно +21.1 +10.8 52 +23 +31 комфорт 1011.5 929.5
11 18.07 З 5-9
{9}
50 км ясно +22.1 +9.9 46 +24 +33 комфорт 1011.4 929.6
12 18.07 З 6-10
{10}
40 км ясно +22.9 +9.6 43 +25 +31 комфорт 1011.2 929.6
14 18.07 З 5-8
{9}
60 км 1/1 1500 м
[]
+23.5 +10.0 42 +25 +30 комфорт 1011.1 929.7
15 18.07 СЗ 5 40 км 6/6 1500 м
[]
+23.0 +9.8 43 +25 +26 комфорт 1011.0 929.5
16 18.07 З 4-7
{9}
65 км 5/0 2000 м
[]
+23.3 +7.5 36 +24 +27 комфорт 1010.9 929.4
17 18.07 СЗ 4-6
{8}
65 км ясно +21.9 +7.7 40 +23 +24 комфорт 1011.4 929.5
18 18.07 СЗ 2 55 км 5/0
[]
+21.1 +8.4 44 +22 +23 комфорт 1011.9 929.8 +18.0 +24.0
19 18.07 С 1-2
{3}
60 км 3/0
[]
+19.4 +7.7 47 +21 +21 комфорт 1012.7 930.0
20 18.07 штиль 0 45 км 5/0 2000 м
[]
+18.6 +7.7 49 +19 +19 1013.6 930.6
21 18.07 Ю 1 45 км 9/0
[]
+19.2 +8.0 48 +21 +21 комфорт 1013.5 930.7
22 18.07 Ю 2-2
{2}
50 км 10/0
[]
+19.6 +7.7 46 +21 +21 комфорт 1013.4 930.7
23 18.07 З 3 13 км слаб. дождь {морось} 6/6 1500 м
[]
+15.6 +12.4 81 +15 +15 1015.3 931.5
00 19.07 Ю 3 35 км в посл. час дождь {морось} 9/9 1500 м
[]
+16.0 +12.3 79 +16 +16 1015.1 931.4 3
01 19.07 Ю 2 35 км 10/0
[]
+16.1 +11.7 75 +16 +16 1014.6 931.0
02 19.07 Ю 2 40 км 10/0 2000 м
[]
+15.9 +11.3 74 +16 +16 1014.7 931.0
03 19.07 Ю 3 35 км 10/0
[]
+16.0 +11.2 73 +16 +16 1014.8 931.1
04 19.07 ЮЗ 3 45 км 9/0 2000 м
[]
+16.2 +10.9 71 +16 +16 1014.9 931.3
05 19.07 ЮЗ 3 40 км 9/0 2000 м
[]
+16.3 +11.1 71 +16 +16 1015.0 931.4
06 19.07 ЮЗ 2 45 км 9/0
[]
+17.2 +11.9 71 +18 +19 1014.9 931.6 +14.6 +21.1 3
07 19.07 Ю 2-3
{4}
40 км 3/0
[]
+18.2 +11.0 63 +19 +24 1014.9 931.8
08 19.07 ЮЗ 2 40 км 9/0
[]
+19.3 +11.7 61 +21 +26 комфорт 1014.8 932.0
09 19.07 З 4 35 км 6/6 1500 м
[]
+19.9 +12.8 64 +22 +25 комфорт 1014.9 932.3
10 19.07 З 4-7
{7}
28 км ясно +21.4 +13.4 60 +24 +35 комфорт 1014.5 932.4
11 19.07 З 5-8
{8}
45 км 3/0
[]
+22.8 +12.3 52 +26 +33 жарко 1014.1 932.3
12 19.07 З 6 40 км 6/6 1410 м
[]
+23.6 +11.6 47 +25 +28 комфорт 1013.7 932.2
13 19.07 З 4-7
{10}
40 км 3/0
[]
+23.3 +13.0 52 +26 +35 жарко 1013.8 932.2
14 19.07 З 4-8
{9}
35 км 5/0
[]
+22.8 +11.7 50 +25 +31 комфорт 1013.9 932.1
15 19.07 СЗ 3-5
{10}
35 км ясно +22.5 +12.3 52 +25 +32 комфорт 1013.8 932.0
16 19.07 СЗ 3-6
{6}
30 км 1/0
[]
+22.4 +12.4 53 +25 +29 комфорт 1013.7 931.9
17 19.07 С 4-5
{6}
35 км ясно +21.6 +12.5 56 +24 +25 комфорт 1013.9 931.8
18 19.07 СЗ 4 35 км 1/0
[]
+20.4 +12.1 59 +22 +23 комфорт 1014.3 931.9 +17.2 +24.1
19 19.07 СЗ 3-4
{4}
35 км 1/0
[]
+18.5 +12.4 68 +19 +19 1015.1 932.1
20 19.07 СЗ 2-3
{3}
30 км 1/0
[]
+17.5 +12.5 72 +18 +18 1015.8 932.5
21 19.07 С 2-2
{4}
35 км ясно +17.6 +12.6 72 +18 +18 1015.9 932.6
22 19.07 В 2-2
{3}
30 км ясно +17.1 +12.6 75 +17 +17 1016.0 932.6
23 19.07 В 2-3
{3}
35 км ясно +17.1 +12.6 75 +17 +17 1016.1 932.7
00 20.07 В 3 30 км ясно +17.2 +12.4 73 +17 +17 1015.8 932.4
01 20.07 В 3-5
{5}
30 км ясно +16.5 +12.6 78 +16 +16 1015.6 932.0
02 20.07 ЮВ 3-6
{6}
26 км ясно +16.7 +12.8 78 +16 +16 1015.3 931.8
03 20.07 ЮВ 4-6
{6}
22 км ясно +16.4 +12.8 79 +16 +16 1015.0 931.5
04 20.07 ЮВ 4-6
{7}
22 км ясно +15.9 +12.6 81 +15 +15 1015.0 931.3
05 20.07 ЮВ 3-7
{7}
22 км 4/0
[]
+16.6 +12.5 77 +16 +17 1014.8 931.3
06 20.07 ЮВ 3 22 км ясно +18.1 +12.7 71 +18 +21 1014.4 931.4 +15.9 +20.4
07 20.07 ЮВ 3-5
{7}
23 км ясно +19.7 +13.5 67 +22 +27 комфорт 1014.0 931.5
08 20.07 Ю 2-5
{5}
25 км 3/0
[]
+22.1 +14.5 62 +25 +34 комфорт 1013.5 931.7
09 20.07 Ю 3 26 км ясно +23.6 +15.0 59 +26 +37 жарко 1013.2 931.8
10 20.07 З 4-6
{6}
30 км ясно +25.0 +13.9 50 +27 +38 жарко 1013.0 931.9
11 20.07 З 4-6
{7}
35 км ясно +25.9 +11.7 41 +27 +39 жарко 1012.8 931.9
12 20.07 З 3-5
{8}
50 км ясно +26.7 +11.8 39 +28 +42 жарко 1012.3 931.7
13 20.07 Ю 2 40 км 6/6 1500 м
[]
+26.0 +12.9 44 +28 +34 жарко 1012.4 931.6
14 20.07 Ю 2 40 км в посл. час дождь {ливн. осадки} 6/6 1500 м
[]
+23.4 +18.3 73 +29 +34 душно 1012.8 931.5
15 20.07 З 7 55 км {ливн. осадки, дождь} 3/0
[]
+26.8 +12.6 41 +28 +30 жарко 1012.0 931.4 3
16 20.07 ЮЗ 7-9
{12}
65 км ясно +26.9 +10.7 36 +28 +29 жарко 1011.7 931.1
17 20.07 З 5 60 км 9/0
[]
+26.6 +11.6 39 +28 +28 жарко 1011.8 931.2
18 20.07 З 5 70 км {ливн. осадки, дождь} 1/0
[]
+25.3 +11.7 43 +27 +27 жарко 1012.3 931.3 +17.9 +27.9
19 20.07 З 5-7
{8}
70 км 8/0
[]
+23.5 +10.1 43 +25 +25 комфорт 1013.3 931.7
20 20.07 З 5 35 км 9/0
[]
+23.2 +9.8 43 +25 +25 комфорт 1014.3 932.6
21 20.07 ЮЗ 4 70 км 3/0
[]
+21.8 +10.2 48 +24 +24 комфорт 1015.1 932.9
22 20.07 ЮЗ 4-6
{6}
70 км 6/0
[]
+21.2 +10.6 51 +23 +23 комфорт 1015.7 933.3
23 20.07 ЮЗ 3 65 км 8/0
[]
+20.8 +10.6 52 +23 +23 комфорт 1015.8 933.3
00 21.07 З 5 45 км слаб. дождь 9/9 1500 м
[]
+20.5 +12.2 59 +22 +22 комфорт 1015.9 933.4 0.2
01 21.07 З 5 65 км в посл. час дождь 6/0
[]
+19.4 +12.7 65 +21 +21 комфорт 1016.5 933.7
02 21.07 З 6 11 км слаб. дождь {морось} 10/10 1500 м
[]
+17.1 +13.5 79 +16 +16 1018.5 934.9
03 21.07 ЮЗ 2 16 км в посл. час дождь {морось} 9/0 2000 м
[]
+15.8 +14.9 94 +16 +16 1018.6 934.7 0.4
04 21.07 ЮЗ 3 11 км в посл. час дождь {морось} 10/0
[]
+15.7 +15.2 97 +15 +15 1018.7 934.8
05 21.07 ЮЗ 3-4
{5}
11 км в посл. час дождь {морось} 9/0
[]
+15.8 +15.2 96 +15 +16 1019.7 935.7
06 21.07 ЮЗ 3 18 км {дождь, морось} 8/8 600 м
[]
+17.0 +15.7 92 +17 +17 1020.0 936.3 +15.6 +25.2 0.7
07 21.07 З 4 35 км 4/4 1200 м
[]
+19.2 +15.3 78 +21 +23 комфорт 1019.6 936.5
08 21.07 З 5-7
{8}
30 км 1/1 400 м
[]
+19.8 +15.7 77 +22 +26 комфорт 1019.9 937.0
09 21.07 З 5 35 км 8/8 540 м
[]
+19.7 +15.5 77 +22 +23 комфорт 1020.5 937.5
10 21.07 З 6-9
{9}
70 км 1/1 800 м
[]
+22.1 +14.1 60 +25 +31 комфорт 1020.0 937.6
11 21.07 СЗ 4 40 км 5/5 1000 м
[]
+21.1 +14.3 65 +24 +30 комфорт 1020.6 937.9
12 21.07 З 3 35 км в посл. час дождь {морось} 4/0 2000 м
[]
+20.5 +16.6 78 +24 +35 комфорт 1020.9 938.1 0.6
13 21.07 СЗ 5 55 км 6/6 930 м
[]
+22.3 +14.4 61 +26 +29 жарко 1020.0 937.7
14 21.07 З 6 70 км 4/4 1410 м
[]
+24.0 +12.8 50 +26 +29 жарко 1019.6 937.7
15 21.07 СЗ 6 60 км 1/1 1380 м
[]
+23.9 +12.5 49 +26 +29 жарко 1019.8 937.9
16 21.07 СЗ 5-7
{9}
70 км 1/1 1350 м
[]
+23.6 +13.1 52 +26 +28 жарко 1019.8 937.8
17 21.07 СЗ 4 55 км 5/5 1380 м
[]
+23.0 +13.2 54 +26 +27 жарко 1020.1 937.9
18 21.07 СЗ 3 50 км 6/6 1000 м
[]
+21.6 +12.7 57 +24 +24 комфорт 1021.0 938.4 +17.0 +24.5
19 21.07 С 2-3
{5}
45 км 1/1 1500 м
[]
+20.3 +12.6 61 +23 +23 комфорт 1021.8 938.8
20 21.07 СВ 1-2
{3}
45 км 8/0
[]
+19.4 +12.7 65 +22 +22 комфорт 1022.4 939.1
21 21.07 С 1 50 км 1/0
[]
+18.6 +12.0 65 +20 +20 1023.1 939.5
22 21.07 С 2-2
{2}
50 км ясно +18.7 +11.4 63 +20 +20 1023.7 940.0
23 21.07 СВ 1-1
{2}
55 км ясно +18.3 +11.3 64 +20 +20 1023.6 939.8
00 22.07 Ю 2 45 км ясно +18.5 +11.3 63 +20 +20 1023.4 939.7
01 22.07 Ю 1-2
{2}
60 км ясно +18.9 +10.9 60 +21 +21 комфорт 1023.1 939.5
02 22.07 Ю 1-1
{2}
60 км ясно +18.6 +10.9 61 +20 +20 1022.9 939.3
03 22.07 Ю 1-1
{2}
60 км ясно +18.5 +11.6 64 +20 +20 1023.1 939.4
04 22.07 Ю 1-2
{2}
55 км ясно +18.3 +11.8 66 +20 +20 1023.4 939.7
05 22.07 Ю 2-3
{3}
55 км ясно +18.9 +11.5 62 +20 +21 1023.2 939.6
06 22.07 Ю 2 40 км ясно +19.9 +11.8 60 +22 +25 комфорт 1023.3 940.0 +17.9 +21.5
07 22.07 Ю 2-3
{3}
50 км ясно +20.9 +11.9 56 +24 +30 комфорт 1023.3 940.3
08 22.07 ЮЗ 3-4
{4}
45 км ясно +22.2 +13.7 59 +25 +33 комфорт 1022.8 940.2
09 22.07 З 3 45 км ясно +23.2 +14.6 58 +27 +38 душно 1022.7 940.4
10 22.07 З 4-7
{7}
45 км ясно +23.7 +14.5 56 +26 +37 жарко 1022.8 940.6
11 22.07 З 3-7
{8}
50 км ясно +24.1 +13.3 51 +26 +40 жарко 1022.7 940.6
12 22.07 ЮЗ 5-7
{8}
70 км ясно +25.3 +12.7 46 +27 +36 жарко 1022.1 940.4
13 22.07 З 4-8
{9}
40 км 1/1 1440 м
[]
+25.8 +13.8 47 +28 +37 жарко 1021.6 940.1
14 22.07 З 4-7
{8}
40 км ясно +26.2 +12.0 41 +28 +36 жарко 1021.4 939.9
15 22.07 СЗ 3 50 км 1/0
[]
+26.4 +11.8 40 +28 +34 жарко 1021.1 939.7
16 22.07 З 2-5
{7}
60 км ясно +26.3 +11.7 40 +28 +32 жарко 1020.8 939.4
17 22.07 С 3 55 км 5/0
[]
+25.4 +11.7 42 +27 +28 жарко 1020.8 939.2
18 22.07 СЗ 3 50 км ясно +23.3 +12.1 49 +26 +26 жарко 1021.4 939.2 +20.0 +26.6
19 22.07 С 3-5
{5}
45 км ясно +21.8 +12.1 54 +24 +24 комфорт 1022.0 939.3
20 22.07 СВ 1-2
{3}
55 км ясно +21.1 +10.6 51 +23 +23 комфорт 1022.5 939.6
21 22.07 С 1-2
{5}
50 км ясно +20.3 +9.7 51 +23 +23 комфорт 1022.8 939.6
22 22.07 В 2-2
{2}
50 км ясно +20.8 +9.9 50 +23 +23 комфорт 1022.7 939.6

 

Местоположение метеостанции Штёттен-ам-Ауэрберг (Германия): широта 48.67 долгота 9.87 высота над уровнем моря 734 м.

В архиве по умолчанию представлена погода в Штёттен-ам-Ауэрберг за последнюю неделю. Архивные данные за месяц целиком и за предыдущие месяцы, начиная с января 2011 года, Вы можете получить, выбрав интересующий диапазон дат из раскрывающегося списка и нажав кнопку "Ввод!".


*Определитесь, кто Вы:
робот инопланетянин человек

Внимание! Время в таблицах - всемирное. Для получения местного времени необходимо прибавить поправку, которая равна 1 ч.

Смотрите также архив погоды в соседних городах и на ближайших метеорологических станциях:

Погода в Ульм-Мерингене (Германия) (26 км)
Погода в Кронхютте (Германия) (31 км)
Погода в Штутгарт аэропорту (Германия) (48 км)
Погода в Лаупхайме (Германия) (50 км)
Погода в Штутгарте (Германия) (52 км)
Погода в Гарбурге (Германия) (62 км)
Погода в Эрингене (Германия) (66 км)
Погода в Фойхтванген-Хайльбронне (Германия) (67 км)
Погода в Нидерштеттене (Германия) (79 км)
Погода в Мюлаккере (Германия) (80 км)

Пояснения к столбцам:

Ветер - указаны скорость ветра в м/с - средняя за 10 мин, порывы в срок и между сроками (в фигурных скобках) и направление, откуда дует ветер: С - северный, СВ - северо-восточный, В - восточный, ЮВ - юго-восточный, Ю - южный, ЮЗ - юго-западный, З - западный, СЗ - северо-западный.
Видимость - горизонтальная дальность видимости в метрах или километрах. При видимости от 1 до 10 км при отсутствии осадков обычно наблюдается дымка, при ухудшении видимости до 1 км и менее - туман. В сухую погоду видимость может ухудшаться дымом, пылью или мглою.
Явления - указаны атмосферные явления, наблюдавшиеся в срок или в последний час перед сроком; фигурными скобками обозначены явления, наблюдавшиеся между сроками (за 1-3 часа до срока); квадратными скобками обозначены град или гололедные отложения с указанием их диаметра в мм.
Облачность - указаны через наклонную черту общая и нижняя облачность в баллах и высота нижней границы облаков в метрах; квадратными скобками обозначены формы облаков: Ci - перистые, Cs - перисто-слоистые, Cc - перисто-кучевые, Ac - высококучевые, As - высокослоистые, Sc - слоисто-кучевые, Ns - слоисто-дождевые, Cu - кучевые, Cb - кучево-дождевые. Подробнее классификацию облаков см. в Атласе облаков (PDF).
T - Температура воздуха - температура, измеренная на высоте 2 м над землей.
Td - Температура точки росы - температура, при понижении до которой содержащийся в воздухе водяной пар достигнет насыщения.
f - Относительная влажность воздуха - влажноcть воздуха, измеренная на высоте 2 м над землей.
Te - Эффективная температура - температура, которую ощущает одетый по сезону человек в тени. Характеристика душности погоды. При расчете учитывается влияние влажности воздуха и скорости ветра на теплоощущения человека.
Tes - Эффективная температура на солнце - температура, которую ощущает человек, с поправкой на солнечный нагрев. Характеристика знойности погоды. Зависит от высоты солнца над горизонтом, облачности и скорости ветра. Ночью, в пасмурную погоду, а также при ветре 12 м/с и более поправка равна нулю.
P - Атмосферное давление - приведенное к уровню моря атмосферное давление.
Po - Атмосферное давление - измеренное на уровне метеостанции атмосферное давление.
Tmin - Минимальная температура - минимум температуры воздуха на высоте 2 м над землей.
Tmax - Максимальная температура - максимум температуры воздуха на высоте 2 м над землей.
R - Количество осадков - Количество выпавших осадков за период времени, мм. При наведении курсора мыши на число - период времени, за который выпало указанное количество осадков.
R24 - Количество осадков - Количество выпавших осадков за 24 часа, мм.
S - Снежный покров - Высота снежного покрова, см. При наведении курсора мыши на число - состояние снежного покрова и степень покрытия местности в баллах.